Preview of NWS' New Version of Forecast
This preview is not operational and should not be used for support decisions.

Regional Weather Roundup (RWR)

Issued by National Weather Service (NWS)

                            
000
ASUS45 KCYS 171710
RWRWY 

WYOMING REGIONAL WEATHER ROUNDUP
NATIONAL WEATHER SERVICE CHEYENNE WY
1000 AM MST SUN FEB 17 2019

NOTE:  "FAIR" INDICATES FEW OR NO CLOUDS BELOW 12,000 FEET
WITH NO SIGNIFICANT WEATHER AND/OR OBSTRUCTIONS TO VISIBILITY.

WYZ001-171800-
...YELLOWSTONE NATIONAL PARK...
  
CITY           SKY/WX    TMP DP  RH WIND       PRES   REMARKS
LK YELLOWSTONE   N/A     13   6  74 CALM      29.77R                  
W YELLOWSTONE  NOT AVBL                                               

$$
WYZ002>013-054>058-071-098>099-171800-
...NORTHERN WYOMING...
  
CITY           SKY/WX    TMP DP  RH WIND       PRES   REMARKS
JACKSON        LGT SNOW  18   9  68 N5        29.82S WCI  11          
CODY           FLURRIES   8   5  87 NE12      29.97R WCI  -7          
GREYBULL       LGT SNOW  11   5  77 NW12      30.02S WCI  -3          
WORLAND        FLURRIES  14   6  70 N10       30.00R WCI   1          
SHERIDAN       CLOUDY     3  -3  76 NW14      30.11R HAZE    WCI -15  
BUFFALO        CLOUDY     2  -4  76 N17       29.97R HAZE    WCI -18  
GILLETTE       CLOUDY     1  -5  75 NW17      30.02R HAZE    WCI -19  
HULETT         CLOUDY     0  -8  71 MISG      30.03R HAZE             
NEWCASTLE        N/A      1  -9  60 NW18      29.99S WCI -19          

$$
WYZ014>020-022>026-101>103-171800-
...CENTRAL WYOMING...
  
CITY           SKY/WX    TMP DP  RH WIND       PRES   REMARKS
BIG PINEY      MOSUNNY   -5  -9  83 E5        29.81S WCI -16          
PINEDALE       MOSUNNY   -2  -6  84 NW5       29.82S WCI -12          
DUBOIS         CLOUDY    14   3  62 W5        29.75S WCI   6          
LANDER         PTSUNNY   15  10  80 N8        29.85R WCI   4          
RIVERTON       MOSUNNY   17  11  77 E17       29.86R WCI   1          
CASPER         LGT SNOW   9   4  80 NE9       29.91R WCI  -4          
DOUGLAS        LGT SNOW  10   2  69 N13       29.95R WCI  -5          

$$
WYZ021-027>030-104>119-171800-
...SOUTHERN WYOMING...
  
CITY           SKY/WX    TMP DP  RH WIND       PRES   REMARKS
EVANSTON       MOSUNNY   15   5  64 E6        29.77S WCI   6          
KEMMERER       CLOUDY    18  10  73 CALM      29.78S                  
FORT BRIDGER   CLOUDY    18  12  79 SW8       29.82S WCI   7          
ROCK SPRINGS   MOSUNNY   14   7  73 CALM      29.80F                  
DIXON          CLOUDY    17  10  73 SE8       29.86S WCI   6          
RAWLINS        SUNNY     18   9  68 SW16      29.79R WCI   3          
SARATOGA       CLOUDY    21  10  63 SW12      29.79S WCI   9          
LARAMIE        SUNNY     21   3  45 VRB5      29.74S WCI  15          
CHEYENNE       SUNNY     16  10  77 N17       29.78F WCI   0          
TORRINGTON     PTSUNNY   15   1  53 N21G32    29.94S WCI  -2          
PINE BLUFFS    LGT SNOW  16  10  79 N16       29.87S WCI   0          

$$
  

000
ASUS45 KCYS 171710
RWRWY 

WYOMING REGIONAL WEATHER ROUNDUP
NATIONAL WEATHER SERVICE CHEYENNE WY
1000 AM MST SUN FEB 17 2019

NOTE:  "FAIR" INDICATES FEW OR NO CLOUDS BELOW 12,000 FEET
WITH NO SIGNIFICANT WEATHER AND/OR OBSTRUCTIONS TO VISIBILITY.

WYZ001-171800-
YELLOWSTONE NATIONAL PARK
  
CITY           SKY/WX    TMP DP  RH WIND       PRES   REMARKS
LK YELLOWSTONE   N/A     13   6  74 CALM      29.77R                  
W YELLOWSTONE  NOT AVBL                                               

$$
WYZ002>013-054>058-071-098>099-171800-
NORTHERN WYOMING
  
CITY           SKY/WX    TMP DP  RH WIND       PRES   REMARKS
JACKSON        LGT SNOW  18   9  68 N5        29.82  WCI  11          
CODY           FLURRIES   8   5  87 NE12      29.97R WCI  -7          
GREYBULL       LGT SNOW  11   5  77 NW12      30.02S WCI  -3          
WORLAND        FLURRIES  14   6  70 N10       30.00R WCI   1          
SHERIDAN       CLOUDY     3  -3  76 NW14      30.11R HAZE    WCI -15  
BUFFALO        CLOUDY     2  -4  76 N17       29.97R HAZE    WCI -18  
GILLETTE       CLOUDY     1  -5  75 NW17      30.02R HAZE    WCI -19  
HULETT         CLOUDY     0  -8  71 MISG      30.03  HAZE             
NEWCASTLE        N/A      1  -9  60 NW18      29.99  WCI -19          

$$
WYZ014>020-022>026-101>103-171800-
CENTRAL WYOMING
  
CITY           SKY/WX    TMP DP  RH WIND       PRES   REMARKS
BIG PINEY      FAIR      -5  -9  83 E5        29.81S WCI -16          
PINEDALE       FAIR      -2  -6  84 NW5       29.82  WCI -12          
DUBOIS         CLOUDY    14   3  62 W5        29.75  WCI   6          
LANDER         PTSUNNY   15  10  80 N8        29.85R WCI   4          
RIVERTON       FAIR      17  11  77 E17       29.86R WCI   1          
CASPER         LGT SNOW   9   4  80 NE9       29.91R WCI  -4          
DOUGLAS        LGT SNOW  10   2  69 N13       29.95R WCI  -5          

$$
WYZ021-027>030-104>119-171800-
SOUTHERN WYOMING
  
CITY           SKY/WX    TMP DP  RH WIND       PRES   REMARKS
EVANSTON       FAIR      15   5  64 E6        29.77S WCI   6          
KEMMERER       CLOUDY    18  10  73 CALM      29.78S                  
FORT BRIDGER   CLOUDY    18  12  79 SW8       29.82S WCI   7          
ROCK SPRINGS   FAIR      14   7  73 CALM      29.80F                  
DIXON          CLOUDY    17  10  73 SE8       29.86S WCI   6          
RAWLINS        FAIR      18   9  68 SW16      29.79R WCI   3          
SARATOGA       CLOUDY    21  10  63 SW12      29.79S WCI   9          
LARAMIE        FAIR      21   3  45 VRB5      29.74S WCI  15          
CHEYENNE       FAIR      16  10  77 N17       29.78F WCI   0          
TORRINGTON     PTSUNNY   15   1  53 N21G32    29.94S WCI  -2          
PINE BLUFFS    LGT SNOW  16  10  79 N16       29.87S WCI   0          

$$